Time,TemperatureF,DewpointF,PressureIn,WindDirection,WindDirectionDegrees,WindSpeedMPH,WindSpeedGustMPH,Humidity,HourlyPrecipIn,Conditions,Clouds,dailyrainin,SolarRadiationWatts/m^2,SoftwareType,DateUTC
2013-02-22 00:01:00,56.0,51.0,-100.00,NE,51,3.0,6.0,84,0.00,,,0.91,0.000000,,2013-02-22 06:01:00,
2013-02-22 00:12:00,56.0,51.0,-100.00,NE,51,3.0,6.0,84,0.00,,,0.91,0.000000,,2013-02-22 06:12:00,
2013-02-22 00:22:00,56.0,51.0,-100.00,NE,51,3.0,6.0,84,0.00,,,0.91,0.000000,,2013-02-22 06:22:00,
2013-02-22 00:31:00,56.0,51.0,-100.00,NE,51,3.0,6.0,84,0.00,,,0.91,0.000000,,2013-02-22 06:31:00,
2013-02-22 00:52:00,54.0,50.0,-100.00,NE,54,2.0,6.0,85,0.00,,,0.91,0.000000,,2013-02-22 06:52:00,
2013-02-22 01:01:00,54.0,50.0,-100.00,NE,54,2.0,6.0,85,0.00,,,0.91,0.000000,,2013-02-22 07:01:00,
2013-02-22 01:11:00,54.0,50.0,-100.00,NE,54,2.0,6.0,85,0.00,,,0.91,0.000000,,2013-02-22 07:11:00,
2013-02-22 01:21:00,54.0,50.0,-100.00,NE,54,2.0,6.0,85,0.00,,,0.91,0.000000,,2013-02-22 07:21:00,
2013-02-22 01:31:00,54.0,50.0,-100.00,NE,54,2.0,6.0,85,0.00,,,0.91,0.000000,,2013-02-22 07:31:00,
2013-02-22 02:32:00,52.0,48.0,-100.00,NE,46,4.0,7.0,86,-99.99,,,0.91,0.000000,,2013-02-22 08:32:00,
2013-02-22 02:52:00,52.0,48.0,-100.00,NE,46,4.0,7.0,86,-99.99,,,0.91,0.000000,,2013-02-22 08:52:00,
2013-02-22 03:03:00,52.0,48.0,-100.00,NE,46,4.0,7.0,86,-99.99,,,0.91,0.000000,,2013-02-22 09:03:00,
2013-02-22 03:11:00,52.0,48.0,-100.00,NE,46,4.0,7.0,86,-99.99,,,0.91,0.000000,,2013-02-22 09:11:00,
2013-02-22 03:21:00,52.0,48.0,-100.00,NE,46,4.0,7.0,86,-99.99,,,0.91,0.000000,,2013-02-22 09:21:00,
2013-02-22 03:32:00,51.0,46.0,-100.00,NE,46,4.0,8.0,84,0.00,,,-99.99,0.000000,,2013-02-22 09:32:00,
2013-02-22 03:52:00,51.0,46.0,-100.00,NE,46,4.0,8.0,84,0.00,,,-99.99,0.000000,,2013-02-22 09:52:00,
2013-02-22 04:01:00,51.0,46.0,-100.00,NE,46,4.0,8.0,84,0.00,,,-99.99,0.000000,,2013-02-22 10:01:00,
2013-02-22 04:11:00,51.0,46.0,-100.00,NE,46,4.0,8.0,84,0.00,,,-99.99,0.000000,,2013-02-22 10:11:00,
2013-02-22 04:21:00,51.0,46.0,-100.00,NE,46,4.0,8.0,84,0.00,,,-99.99,0.000000,,2013-02-22 10:21:00,
2013-02-22 04:32:00,49.0,45.0,-100.00,NE,46,3.0,7.0,86,0.00,,,0.91,0.000000,,2013-02-22 10:32:00,
2013-02-22 04:52:00,49.0,45.0,-100.00,NE,46,3.0,7.0,86,0.00,,,0.91,0.000000,,2013-02-22 10:52:00,
2013-02-22 05:01:00,49.0,45.0,-100.00,NE,46,3.0,7.0,86,0.00,,,0.91,0.000000,,2013-02-22 11:01:00,
2013-02-22 05:11:00,49.0,45.0,-100.00,NE,46,3.0,7.0,86,0.00,,,0.91,0.000000,,2013-02-22 11:11:00,
2013-02-22 05:21:00,49.0,45.0,-100.00,NE,46,3.0,7.0,86,0.00,,,0.91,0.000000,,2013-02-22 11:21:00,
2013-02-22 05:32:00,48.0,44.0,-100.00,ENE,57,3.0,6.0,86,0.00,,,0.91,0.000000,,2013-02-22 11:32:00,
2013-02-22 05:52:00,48.0,44.0,-100.00,ENE,57,3.0,6.0,86,0.00,,,0.91,0.000000,,2013-02-22 11:52:00,
2013-02-22 06:02:00,48.0,44.0,-100.00,ENE,57,3.0,6.0,86,0.00,,,0.91,0.000000,,2013-02-22 12:02:00,
2013-02-22 06:11:00,48.0,44.0,-100.00,ENE,57,3.0,6.0,86,0.00,,,0.91,0.000000,,2013-02-22 12:11:00,
2013-02-22 06:22:00,48.0,44.0,-100.00,ENE,57,3.0,6.0,86,0.00,,,0.91,0.000000,,2013-02-22 12:22:00,
2013-02-22 06:32:00,49.0,45.0,-100.00,NE,34,2.0,4.0,87,0.00,,,0.91,0.000000,,2013-02-22 12:32:00,
2013-02-22 06:52:00,49.0,45.0,-100.00,NE,34,2.0,4.0,87,0.00,,,0.91,0.000000,,2013-02-22 12:52:00,
2013-02-22 07:02:00,49.0,45.0,-100.00,NE,34,2.0,4.0,87,0.00,,,0.91,0.000000,,2013-02-22 13:02:00,
2013-02-22 07:11:00,49.0,45.0,-100.00,NE,34,2.0,4.0,87,0.00,,,0.91,0.000000,,2013-02-22 13:11:00,
2013-02-22 07:22:00,49.0,45.0,-100.00,NE,34,2.0,4.0,87,0.00,,,0.91,0.000000,,2013-02-22 13:22:00,
2013-02-22 07:32:00,50.0,45.0,-100.00,NNE,32,3.0,6.0,84,0.00,,,0.91,13.000000,,2013-02-22 13:32:00,
2013-02-22 07:52:00,50.0,45.0,-100.00,NNE,32,3.0,6.0,84,0.00,,,0.91,13.000000,,2013-02-22 13:52:00,
2013-02-22 08:01:00,50.0,45.0,-100.00,NNE,32,3.0,6.0,84,0.00,,,0.91,13.000000,,2013-02-22 14:01:00,
2013-02-22 08:11:00,50.0,45.0,-100.00,NNE,32,3.0,6.0,84,0.00,,,0.91,13.000000,,2013-02-22 14:11:00,
2013-02-22 08:21:00,50.0,45.0,-100.00,NNE,32,3.0,6.0,84,0.00,,,0.91,13.000000,,2013-02-22 14:21:00,
2013-02-22 08:32:00,51.0,45.0,-100.00,NE,47,5.0,9.0,81,0.00,,,0.90,116.000000,,2013-02-22 14:32:00,
2013-02-22 08:53:00,51.0,45.0,-100.00,NE,47,5.0,9.0,81,0.00,,,0.90,116.000000,,2013-02-22 14:53:00,
2013-02-22 09:01:00,51.0,45.0,-100.00,NE,47,5.0,9.0,81,0.00,,,0.90,116.000000,,2013-02-22 15:01:00,
2013-02-22 09:11:00,51.0,45.0,-100.00,NE,47,5.0,9.0,81,0.00,,,0.90,116.000000,,2013-02-22 15:11:00,
2013-02-22 09:21:00,51.0,45.0,-100.00,NE,47,5.0,9.0,81,0.00,,,0.90,116.000000,,2013-02-22 15:21:00,
2013-02-22 09:32:00,53.0,45.0,-100.00,NE,42,5.0,8.0,74,0.00,,,0.90,269.000000,,2013-02-22 15:32:00,
2013-02-22 09:52:00,53.0,45.0,-100.00,NE,42,5.0,8.0,74,0.00,,,0.90,269.000000,,2013-02-22 15:52:00,
2013-02-22 10:01:00,53.0,45.0,-100.00,NE,42,5.0,8.0,74,0.00,,,0.90,269.000000,,2013-02-22 16:01:00,
2013-02-22 10:12:00,53.0,45.0,-100.00,NE,42,5.0,8.0,74,0.00,,,0.90,269.000000,,2013-02-22 16:12:00,
2013-02-22 10:22:00,53.0,45.0,-100.00,NE,42,5.0,8.0,74,0.00,,,0.90,269.000000,,2013-02-22 16:22:00,
2013-02-22 10:52:00,58.0,44.0,-100.00,NE,42,6.0,13.0,60,0.00,,,0.90,558.000000,,2013-02-22 16:52:00,
2013-02-22 11:01:00,58.0,44.0,-100.00,NE,42,6.0,13.0,60,0.00,,,0.90,558.000000,,2013-02-22 17:01:00,
2013-02-22 11:11:00,58.0,44.0,-100.00,NE,42,6.0,13.0,60,0.00,,,0.90,558.000000,,2013-02-22 17:11:00,
2013-02-22 11:21:00,58.0,44.0,-100.00,NE,42,6.0,13.0,60,0.00,,,0.90,558.000000,,2013-02-22 17:21:00,
2013-02-22 11:31:00,58.0,44.0,-100.00,NE,42,6.0,13.0,60,0.00,,,0.90,558.000000,,2013-02-22 17:31:00,
2013-02-22 11:32:00,60.0,43.0,-100.00,NE,49,6.0,13.0,53,0.00,,,0.90,634.000000,,2013-02-22 17:32:00,
2013-02-22 11:52:00,60.0,43.0,-100.00,NE,49,6.0,13.0,53,0.00,,,0.90,634.000000,,2013-02-22 17:52:00,
2013-02-22 12:01:00,60.0,43.0,-100.00,NE,49,6.0,13.0,53,0.00,,,0.90,634.000000,,2013-02-22 18:01:00,
2013-02-22 12:12:00,60.0,43.0,-100.00,NE,49,6.0,13.0,53,0.00,,,0.90,634.000000,,2013-02-22 18:12:00,
2013-02-22 12:22:00,60.0,43.0,-100.00,NE,49,6.0,13.0,53,0.00,,,0.90,634.000000,,2013-02-22 18:22:00,
2013-02-22 12:52:00,60.0,44.0,-100.00,ENE,66,5.0,12.0,56,0.00,,,0.90,373.000000,,2013-02-22 18:52:00,
2013-02-22 13:01:00,60.0,44.0,-100.00,ENE,66,5.0,12.0,56,0.00,,,0.90,373.000000,,2013-02-22 19:01:00,
2013-02-22 13:11:00,60.0,44.0,-100.00,ENE,66,5.0,12.0,56,0.00,,,0.90,373.000000,,2013-02-22 19:11:00,
2013-02-22 13:21:00,60.0,44.0,-100.00,ENE,66,5.0,12.0,56,0.00,,,0.90,373.000000,,2013-02-22 19:21:00,
2013-02-22 13:31:00,60.0,44.0,-100.00,ENE,66,5.0,12.0,56,0.00,,,0.90,373.000000,,2013-02-22 19:31:00,
2013-02-22 13:52:00,60.0,45.0,-100.00,NE,34,4.0,10.0,57,0.00,,,0.76,239.000000,,2013-02-22 19:52:00,
2013-02-22 14:01:00,60.0,45.0,-100.00,NE,34,4.0,10.0,57,0.00,,,0.76,239.000000,,2013-02-22 20:01:00,
2013-02-22 14:11:00,60.0,45.0,-100.00,NE,34,4.0,10.0,57,0.00,,,0.76,239.000000,,2013-02-22 20:11:00,
2013-02-22 14:21:00,60.0,45.0,-100.00,NE,34,4.0,10.0,57,0.00,,,0.76,239.000000,,2013-02-22 20:21:00,
2013-02-22 14:31:00,60.0,45.0,-100.00,NE,34,4.0,10.0,57,0.00,,,0.76,239.000000,,2013-02-22 20:31:00,
2013-02-22 14:32:00,59.0,46.0,-100.00,NNE,29,3.0,12.0,63,0.00,,,0.76,134.000000,,2013-02-22 20:32:00,
2013-02-22 14:52:00,59.0,46.0,-100.00,NNE,29,3.0,12.0,63,0.00,,,0.76,134.000000,,2013-02-22 20:52:00,
2013-02-22 15:01:00,59.0,46.0,-100.00,NNE,29,3.0,12.0,63,0.00,,,0.76,134.000000,,2013-02-22 21:01:00,
2013-02-22 15:11:00,59.0,46.0,-100.00,NNE,29,3.0,12.0,63,0.00,,,0.76,134.000000,,2013-02-22 21:11:00,
2013-02-22 15:21:00,59.0,46.0,-100.00,NNE,29,3.0,12.0,63,0.00,,,0.76,134.000000,,2013-02-22 21:21:00,
2013-02-22 15:52:00,57.0,47.0,-100.00,NNE,33,3.0,8.0,70,0.00,,,0.75,111.000000,,2013-02-22 21:52:00,
2013-02-22 16:01:00,57.0,47.0,-100.00,NNE,33,3.0,8.0,70,0.00,,,0.75,111.000000,,2013-02-22 22:01:00,
2013-02-22 16:11:00,57.0,47.0,-100.00,NNE,33,3.0,8.0,70,0.00,,,0.75,111.000000,,2013-02-22 22:11:00,
2013-02-22 16:21:00,57.0,47.0,-100.00,NNE,33,3.0,8.0,70,0.00,,,0.75,111.000000,,2013-02-22 22:21:00,
2013-02-22 16:31:00,57.0,47.0,-100.00,NNE,33,3.0,8.0,70,0.00,,,0.75,111.000000,,2013-02-22 22:31:00,
2013-02-22 16:52:00,55.0,46.0,-100.00,NE,51,4.0,11.0,72,0.00,,,0.43,87.000000,,2013-02-22 22:52:00,
2013-02-22 17:01:00,55.0,46.0,-100.00,NE,51,4.0,11.0,72,0.00,,,0.43,87.000000,,2013-02-22 23:01:00,
2013-02-22 17:11:00,55.0,46.0,-100.00,NE,51,4.0,11.0,72,0.00,,,0.43,87.000000,,2013-02-22 23:11:00,
2013-02-22 17:21:00,55.0,46.0,-100.00,NE,51,4.0,11.0,72,0.00,,,0.43,87.000000,,2013-02-22 23:21:00,
2013-02-22 17:31:00,55.0,46.0,-100.00,NE,51,4.0,11.0,72,0.00,,,0.43,87.000000,,2013-02-22 23:31:00,
2013-02-22 17:32:00,53.0,48.0,-100.00,NNE,15,3.0,9.0,82,0.00,,,0.01,39.000000,,2013-02-22 23:32:00,
2013-02-22 17:52:00,53.0,48.0,-100.00,NNE,15,3.0,9.0,82,0.00,,,0.01,39.000000,,2013-02-22 23:52:00,
2013-02-22 18:02:00,53.0,48.0,-100.00,NNE,15,3.0,9.0,82,0.00,,,0.01,39.000000,,2013-02-23 00:02:00,
2013-02-22 18:11:00,53.0,48.0,-100.00,NNE,15,3.0,9.0,82,0.00,,,0.01,39.000000,,2013-02-23 00:11:00,
2013-02-22 18:21:00,53.0,48.0,-100.00,NNE,15,3.0,9.0,82,0.00,,,0.01,39.000000,,2013-02-23 00:21:00,
2013-02-22 18:52:00,51.0,47.0,-100.00,NE,38,4.0,9.0,85,0.01,,,0.01,4.000000,,2013-02-23 00:52:00,
2013-02-22 19:01:00,51.0,47.0,-100.00,NE,38,4.0,9.0,85,0.01,,,0.01,4.000000,,2013-02-23 01:01:00,
2013-02-22 19:11:00,51.0,47.0,-100.00,NE,38,4.0,9.0,85,0.01,,,0.01,4.000000,,2013-02-23 01:11:00,
2013-02-22 19:21:00,51.0,47.0,-100.00,NE,38,4.0,9.0,85,0.01,,,0.01,4.000000,,2013-02-23 01:21:00,
2013-02-22 19:31:00,51.0,47.0,-100.00,NE,38,4.0,9.0,85,0.01,,,0.01,4.000000,,2013-02-23 01:31:00,
2013-02-22 19:52:00,51.0,45.0,-100.00,NE,38,4.0,10.0,81,0.00,,,0.01,0.000000,,2013-02-23 01:52:00,
2013-02-22 20:01:00,51.0,45.0,-100.00,NE,38,4.0,10.0,81,0.00,,,0.01,0.000000,,2013-02-23 02:01:00,
2013-02-22 20:11:00,51.0,45.0,-100.00,NE,38,4.0,10.0,81,0.00,,,0.01,0.000000,,2013-02-23 02:11:00,
2013-02-22 20:21:00,51.0,45.0,-100.00,NE,38,4.0,10.0,81,0.00,,,0.01,0.000000,,2013-02-23 02:21:00,
2013-02-22 20:31:00,51.0,45.0,-100.00,NE,38,4.0,10.0,81,0.00,,,0.01,0.000000,,2013-02-23 02:31:00,
2013-02-22 20:32:00,51.0,45.0,-100.00,NE,43,5.0,9.0,81,0.00,,,0.01,0.000000,,2013-02-23 02:32:00,
2013-02-22 20:52:00,51.0,45.0,-100.00,NE,43,5.0,9.0,81,0.00,,,0.01,0.000000,,2013-02-23 02:52:00,
2013-02-22 21:01:00,51.0,45.0,-100.00,NE,43,5.0,9.0,81,0.00,,,0.01,0.000000,,2013-02-23 03:01:00,
2013-02-22 21:11:00,51.0,45.0,-100.00,NE,43,5.0,9.0,81,0.00,,,0.01,0.000000,,2013-02-23 03:11:00,
2013-02-22 21:21:00,51.0,45.0,-100.00,NE,43,5.0,9.0,81,0.00,,,0.01,0.000000,,2013-02-23 03:21:00,
2013-02-22 21:52:00,51.0,44.0,-100.00,NNE,32,4.0,11.0,78,0.00,,,0.01,0.000000,,2013-02-23 03:52:00,
2013-02-22 22:01:00,51.0,44.0,-100.00,NNE,32,4.0,11.0,78,0.00,,,0.01,0.000000,,2013-02-23 04:01:00,
2013-02-22 22:11:00,51.0,44.0,-100.00,NNE,32,4.0,11.0,78,0.00,,,0.01,0.000000,,2013-02-23 04:11:00,
2013-02-22 22:21:00,51.0,44.0,-100.00,NNE,32,4.0,11.0,78,0.00,,,0.01,0.000000,,2013-02-23 04:21:00,
2013-02-22 22:31:00,51.0,44.0,-100.00,NNE,32,4.0,11.0,78,0.00,,,0.01,0.000000,,2013-02-23 04:31:00,
2013-02-22 22:32:00,51.0,44.0,-100.00,NNE,30,4.0,12.0,78,0.00,,,0.01,0.000000,,2013-02-23 04:32:00,
2013-02-22 22:52:00,51.0,44.0,-100.00,NNE,30,4.0,12.0,78,0.00,,,0.01,0.000000,,2013-02-23 04:52:00,
2013-02-22 23:03:00,51.0,44.0,-100.00,NNE,30,4.0,12.0,78,0.00,,,0.01,0.000000,,2013-02-23 05:03:00,
2013-02-22 23:12:00,51.0,44.0,-100.00,NNE,30,4.0,12.0,78,0.00,,,0.01,0.000000,,2013-02-23 05:12:00,
2013-02-22 23:22:00,51.0,44.0,-100.00,NNE,30,4.0,12.0,78,0.00,,,0.01,0.000000,,2013-02-23 05:22:00,
2013-02-22 23:52:00,50.0,44.0,-100.00,NNE,24,4.0,11.0,79,0.00,,,-99.99,0.000000,,2013-02-23 05:52:00,